Flag for Austria Weather past 2 weeks in Wiener Neustadt, Lower Austria, Austria

Now
51 °F

Sunny.


Feels Like: 51 °F
Forecast: 53 / 74 °F
Wind: 2 mph from East

Location: Eisenstadt

Current Time: Sep 18, 2014 at 8:09:53 AM

Latest Report: Sep 18, 2014 at 7:00 AM


Visibility: 9 mi

Pressure: 30.07 "Hg

Humidity: 94%

Dew point: 49 °F

Location of Wiener NeustadtLocation

Historic Weather in Wiener Neustadt — Graph

°F

Wiener Neustadt temperature yesterday

Maximum temperature yesterday: 72 °F (at 3:00 PM)
Minimum temperature yesterday: 55 °F (at 5:00 AM)
Average temperature yesterday: 62 °F

Past Weeks' High & Low Weather Summary

 TemperatureHumidityPressure
High78 °F (Sep 9, 2:00 PM)99% (Sep 9, 9:00 AM)30.09 "Hg (Sep 9, 9:00 AM)
Low51 °F (Sep 18, 5:00 AM)53% (Sep 17, 3:00 PM)29.77 "Hg (Sep 12, 5:00 AM)
Average63 °F84%29.98 "Hg
* Reported Sep 3 6:00 AM — Sep 18 6:00 AM, Wiener Neustadt, Weather by CustomWeather, © 2014

Note: Actual official high and low records may vary slightly from our data, if they occured in-between our weather recording intervals... More about our weather records

Advertising

Wiener Neustadt weather history for previous 24 hours

 ConditionsComfort  
Time TempWeatherWind HumidityBarometerVisibility
6:00 AM
Sep 18
51 °FClear.1 mph92%30.06 "Hg6 mi
5:00 AM51 °FClear.1 mph94%30.06 "Hg6 mi
4:00 AM53 °FClear.1 mph91%30.06 "Hg6 mi
3:00 AM53 °FCool.No wind92%30.06 "HgN/A
2:00 AM54 °FCool.1 mph93%30.06 "HgN/A
1:00 AM54 °FCool.1 mph95%30.06 "HgN/A
12:00 AM55 °FCool.1 mph94%30.06 "HgN/A
11:00 PM
Sep 17
56 °FClear.1 mph94%30.07 "Hg6 mi
10:00 PM57 °FCool.No wind92%30.06 "HgN/A
9:00 PM58 °FCool.1 mph90%30.06 "HgN/A
8:00 PM61 °FClear.No wind85%30.05 "Hg7 mi
7:00 PM65 °FSunny.3 mph72%30.03 "Hg9 mi
6:00 PM69 °FMild.6 mph61%30.03 "HgN/A
5:00 PM70 °FMild.7 mph57%30.03 "HgN/A
4:00 PM71 °FMild.7 mph55%30.03 "HgN/A
3:00 PM72 °FMild.6 mph53%30.03 "HgN/A
2:00 PM72 °FPassing clouds.6 mph54%30.04 "Hg16 mi
1:00 PM71 °FMild.6 mph58%30.06 "HgN/A
12:00 PM68 °FMild.5 mph72%30.06 "HgN/A
11:00 AM65 °FScattered clouds.2 mph82%30.08 "Hg16 mi
10:00 AM60 °FCool.2 mph92%30.09 "HgN/A
9:00 AM58 °FCool.2 mph96%30.09 "HgN/A
8:00 AM57 °FCool.1 mph97%30.08 "HgN/A
Weather by CustomWeather, © 2014

See weather overviewHow to use our weather pages